Hutchinson, KS

8:27 AM CST on February 12, 2016 (GMT -0600)
Hutchinson Municipal

Weather History for KHUT - October, 2013

Change the Weather History Date:

Tuesday, October 8, 2013

  Actual Average Record
Temperature  
Mean Temperature 64 °F -  
Max Temperature 80 °F 70 °F 90 °F (2010)
Min Temperature 50 °F 45 °F 19 °F (2000)
Growing Degree Days 14 (Base 50)    
Moisture  
Dew Point 41 °F    
Average Humidity 47    
Maximum Humidity 68    
Minimum Humidity 25    
Precipitation  
Precipitation 0.00 in - - ()
Sea Level Pressure  
Sea Level Pressure 29.97 in    
Wind  
Wind Speed 13 mph (SSE)    
Max Wind Speed 24 mph    
Max Gust Speed 33 mph    
Visibility 10 miles    
Events      
Averages and records for this station are not official NWS values.
T = Trace of Precipitation, MM = Missing Value Source: NWS Daily Summary

Daily Weather History Graph

Daily Weather History Graph

Search for Another Location

Airport or City:

Trip Planner

Search our weather history database for the weather conditions in past years. The results will help you decide how hot, cold, wet, or windy it might be!

Date:

Astronomy

Oct. 08, 2013 Rise Set
Actual Time 7:33 AM CDT 7:03 PM CDT
Civil Twilight 7:07 AM CDT 7:29 PM CDT
Nautical Twilight 6:36 AM CDT 8:00 PM CDT
Astronomical Twilight 6:06 AM CDT 8:30 PM CDT
Moon 11:25 AM CDT (10/8) 9:44 PM CDT (10/8)
Length of Visible Light 12h 22m
Length of Day
11h 29m
Waxing Crescent, 16% of the Moon is Illuminated
Oct 8
Waxing Crescent
Oct 11
First Quarter
Oct 18
Full
Oct 26
Last Quarter
Nov 3
New

Hourly Weather History & Observations

Time (CDT) Temp. Dew Point Humidity Pressure Visibility Wind Dir Wind Speed Gust Speed Precip Events Conditions
12:52 AM 53.1 °F 39.9 °F 61% 30.03 in 10.0 mi SSE 5.8 mph - N/A   Clear
1:52 AM 52.0 °F 39.0 °F 61% 30.02 in 10.0 mi SE 6.9 mph - N/A   Clear
2:52 AM 50.0 °F 39.9 °F 68% 30.02 in 10.0 mi South 5.8 mph - N/A   Clear
3:52 AM 53.1 °F 41.0 °F 64% 30.01 in 10.0 mi SSE 9.2 mph - N/A   Clear
4:52 AM 53.1 °F 39.9 °F 61% 30.01 in 10.0 mi South 10.4 mph - N/A   Clear
5:52 AM 52.0 °F 39.0 °F 61% 30.02 in 10.0 mi SSE 9.2 mph - N/A   Clear
6:52 AM 52.0 °F 39.0 °F 61% 30.02 in 10.0 mi SSE 11.5 mph - N/A   Clear
7:52 AM 51.1 °F 39.9 °F 66% 30.04 in 10.0 mi SSE 9.2 mph - N/A   Clear
8:52 AM 57.9 °F 41.0 °F 53% 30.04 in 10.0 mi SSE 15.0 mph - N/A   Clear
9:52 AM 64.0 °F 41.0 °F 43% 30.03 in 10.0 mi South 17.3 mph 25.3 mph N/A   Clear
10:52 AM 68.0 °F 39.0 °F 35% 30.02 in 10.0 mi South 24.2 mph - N/A   Clear
11:52 AM 72.0 °F 39.9 °F 31% 30.00 in 10.0 mi South 24.2 mph 32.2 mph N/A   Clear
12:52 PM 75.0 °F 39.9 °F 28% 29.98 in 10.0 mi South 20.7 mph 31.1 mph N/A   Clear
1:52 PM 77.0 °F 41.0 °F 28% 29.94 in 10.0 mi South 21.9 mph 31.1 mph N/A   Clear
2:52 PM 78.1 °F 39.9 °F 25% 29.92 in 10.0 mi SSE 23.0 mph 29.9 mph N/A   Clear
3:52 PM 79.0 °F 39.9 °F 25% 29.90 in 10.0 mi SSE 23.0 mph 33.4 mph N/A   Clear
4:52 PM 79.0 °F 41.0 °F 26% 29.89 in 10.0 mi SSE 21.9 mph 28.8 mph N/A   Clear
5:52 PM 75.9 °F 42.1 °F 30% 29.89 in 10.0 mi SSE 24.2 mph 28.8 mph N/A   Clear
6:52 PM 71.1 °F 43.0 °F 36% 29.89 in 10.0 mi SSE 18.4 mph 24.2 mph N/A   Clear
7:52 PM 66.9 °F 44.1 °F 44% 29.91 in 10.0 mi SE 13.8 mph - N/A   Clear
8:52 PM 64.9 °F 44.1 °F 47% 29.91 in 10.0 mi SE 13.8 mph - N/A   Clear
9:52 PM 64.0 °F 45.0 °F 50% 29.91 in 10.0 mi SSE 13.8 mph - N/A   Clear
10:52 PM 62.1 °F 46.0 °F 56% 29.91 in 10.0 mi SE 16.1 mph - N/A   Clear
11:52 PM 60.1 °F 48.0 °F 64% 29.91 in 10.0 mi SE 12.7 mph - N/A   Clear